Regional Weather Roundup
Issued by NWS

Home | Current Version | Previous Version | Graphics & Text | Print | Product List | Glossary On
Versions: 1 2 3 4 5 6 7 8 9 10 11 12 13 14 15 16 17 18 19 20 21 22 23 24 25 26 27 28 29 30 31 32 33 34 35 36 37 38 39 40 41 42 43 44 45 46 47 48 49 50
000
ASUS43 KFSD 171510
RWRSD

WEATHER ROUNDUP FOR SOUTH DAKOTA
NATIONAL WEATHER SERVICE SIOUX FALLS SD
1000 AM CDT FRI APR 17 2015

NOTE: "FAIR" INDICATES FEW OR NO CLOUDS BELOW 12,000 FEET WITH NO
SIGNIFICANT WEATHER AND/OR OBSTRUCTIONS TO VISIBILITY.


SDZ001>005-009-010-012>017-171600-
NORTHWEST AND NORTH CENTRAL SOUTH DAKOTA

CITY           SKY/WX    TMP DP  RH WIND       PRES   REMARKS
BUFFALO          N/A     50  33  52 CALM      30.16S
FAITH            N/A     54  26  34 CALM      30.21S
MOBRIDGE       MOSUNNY   50  29  44 NW5       30.18F
$$

SDZ012>016-024>037-041>051-057-063-072>074-171600-
SOUTHWEST AND SOUTH CENTRAL SOUTH DAKOTA

CITY           SKY/WX    TMP DP  RH WIND       PRES   REMARKS
RAPID CTY ARPT CLOUDY    50  30  46 N9        30.21F
PIERRE         SUNNY     57  35  43 CALM      30.18F
CUSTER         CLOUDY    42  31  64 NE9       30.20F
ELLSWORTH AFB  CLOUDY    49  29  44 N10       30.21S
PHILIP         CLOUDY    55  33  43 NE7       30.19F
PINE RIDGE     CLOUDY    49  36  61 NE10      30.16F
SPEARFISH      FAIR      48  34  57 CALM      30.23F
WINNER         FAIR      55  38  52 NE8       30.16S
$$

SDZ004>011-016>023-039-040-171600-
NORTHEAST SOUTH DAKOTA

CITY           SKY/WX    TMP DP  RH WIND       PRES   REMARKS
ABERDEEN       SUNNY     57  31  37 N6        30.19S
WATERTOWN      SUNNY     61  30  31 NE8       30.16F
BROOKINGS      SUNNY     61  37  41 NE9       30.15F
SISSETON         N/A     59  28  30 NW6       30.17R
$$

SDZ017-020-022-023-036>040-048>070-171600-
SOUTHEAST SOUTH DAKOTA

CITY           SKY/WX    TMP DP  RH WIND       PRES   REMARKS
SIOUX FALLS    MOSUNNY   63  42  46 NE7       30.13F
HURON          SUNNY     60  34  37 NE7       30.16F
CHAMBERLAIN    SUNNY     58  38  46 E5        30.16F
MITCHELL       SUNNY     58  40  51 NE6       30.15F
YANKTON        PTSUNNY   57  45  62 N8        30.13F
$$

ABBREVIATIONS USED IN REMARKS
   TC - TEMPERATURE IN CELSIUS
  WCI - WIND CHILL INDEX
   HX - HEAT INDEX
  VSB - VISIBILITY



USA.gov is the U.S. government's official web portal to all federal, state and local government web resources and services.